Regional Weather Roundup
Issued by NWS Albany, NY

Home | Current Version | Previous Version | Text Only | Print | Product List | Glossary On
Versions: 1 2 3 4 5 6 7 8 9 10 11 12 13 14 15 16 17 18 19 20 21 22 23 24 25 26 27 28 29 30 31 32 33 34 35 36 37 38 39 40 41 42 43 44 45 46 47 48 49 50
000
ASUS41 KALY 230010
RWRALY

NEW YORK STATE HOURLY WEATHER ROUNDUP
NATIONAL WEATHER SERVICE ALBANY NY
800 PM EDT SAT APR 22 2017

NOTE: "FAIR" INDICATES FEW OR NO CLOUDS BELOW 12,000 FEET WITH NO
SIGNIFICANT WEATHER AND/OR NO OBSTRUCTIONS TO VISIBILITY.

NYZ032-033-038>043-046>054-057>066-NYZ062>081-082-084-230100-
EAST


CITY           SKY/WX    TMP DP  RH WIND       PRES   REMARKS
ALBANY         MOCLDY    50  39  66 NW14      29.99R
GLENS FALLS    CLOUDY    50  35  56 N10       29.99R
POUGHKEEPSIE   CLOUDY    52  36  54 N5        29.97R
NEWBURGH       MOCLDY    50  39  66 NW8       29.99R
MONTGOMERY     CLOUDY    52  36  54 N6        29.97R
WHITE PLAINS   CLOUDY    52  46  80 W6        29.95R
ISLIP          CLOUDY    52  51  97 W3        29.96R
NEW YORK CITY  CLOUDY    55  47  74 NW3       29.96R
CENTRAL PARK   CLOUDY    53  49  86 CALM      29.99R
$$

NYZ005>009-017-018-044>046-055-056-230100-
CENTRAL


CITY           SKY/WX    TMP DP  RH WIND       PRES   REMARKS
FULTON         PTCLDY    45  34  65 W5        30.06R
SYRACUSE       PTCLDY    46  35  65 NW7       30.05R
ROME           CLOUDY    47  37  68 NW6       30.05R
ELMIRA         CLOUDY    45  32  60 N3        30.05R
BINGHAMTON     CLOUDY    41  32  70 NW5       30.02R
MONTICELLO     CLOUDY    45  36  70 NW10G21   30.00R
$$

NYZ026>034-041>043-087-230100-
NORTH


CITY           SKY/WX    TMP DP  RH WIND       PRES   REMARKS
WATERTOWN      CLEAR     41  35  79 SW5       30.06R
FORT DRUM      NOT AVBL
OGDENSBURG     CLOUDY    50  37  60 CALM      30.03S
MASSENA        CLOUDY    48  38  68 CALM      30.04R
SARANAC LAKE   CLOUDY    39  36  89 SW3       29.99R
PLATTSBURGH    CLOUDY    46  37  71 NW3       30.01R
$$

NYZ001>004-010>016-019>021-085-230100-
WEST


CITY           SKY/WX    TMP DP  RH WIND       PRES   REMARKS
NIAGARA FALLS  PTCLDY    50  37  61 SW9       30.07R
BUFFALO        MOCLDY    47  34  60 SW9       30.07R
DUNKIRK        CLOUDY    43  36  76 W5        30.09R
JAMESTOWN      MOCLDY    45  30  57 NE6       30.06S
WELLSVILLE     CLEAR     44  32  62 N10       30.06R
ROCHESTER      MOCLDY    51  34  52 W5        30.05S
PENN YAN       PTCLDY    47  32  56 VRB3      30.05R
$$

             KEY
       WCI = WIND CHILL INDEX
       VSB = VISIBILITY
       HX  = HEAT INDEX
$$



USA.gov is the U.S. government's official web portal to all federal, state and local government web resources and services.